Погода Новая Ушица

Погода Новая Ушица : погода сейчас, прогноз погоды и архив. Всё, что Вы хотите узнать о погоде Новая Ушица!

Поиск расширенной информации на нашем сайте:

Другие новости

Новости СМИ2

Главная страница сайта

Новости сайта

03.07.2017

Напоминаем, что на нашем специализированном сайте Метеоцентр.Азия вы можете получить высокодетализированные автоматические прогнозы погоды по пунктам России, СНГ и мира в авиационном формате (включающие направление и скорость ветра, видимость, явления погоды, количество и форму облачности, нижнюю и верхнюю границу облачности).


Погода Новая Ушица - сегодня

Время (UTC), дата Ветер
(°,м/с) 
Видим.   Явления Облачность Т
(°С)
Тd
(°С)
f(%) Тe
(°С)
Pmin
(гПа)
dP
(гПа)
Po
(мм)
O2
(г/м3)
Тmin Tmax R s Состояние
почвы
21 15.04.18 120 (ЮВ) н/о    4/0 средняя, верхняя 
[Ac trans|Ci fib]
+15.5 +7.3 58 +17  1019.8  -0.1  739  280           
09 16.04.18 130 (ЮВ) 30000 м    9/5 600 м кучево-дожд., средняя 
[Cb calv|Ac und]
+15.3 +5.3 51 +15  1018  -0.1  738  280           
15 16.04.18 160 (Ю) 65000 м    9/0 средняя, верхняя 
[Ac As|Cs]
+17.9 +2.6 36 +18  1016.2  -0.7  737  278           
09 17.04.18 170 (Ю) 26000 м    10/0 средняя 
[Ac As]
+12.9 +3.9 54 +13  1019.4  0.9  739  283           
15 17.04.18 170 (Ю) 25000 м    10/5 600 м средняя 
[Sc|Ac As]
+18.5 +6.8 46 +20  1018.6  738  277           
21 17.04.18 320 (СЗ) н/о    10/8 600 м средняя 
[Sc|Ac As]
+15.5 +10 70 +17  1021.6  1.4  740  280           
09 18.04.18 340 (С) н/о    4/0 средняя, верхняя 
[Ac trans|Ci fib]
+15.2 +6.1 55 +16  1026.6  0.5  744  282           
15 18.04.18 310 (СЗ) н/о    8/4 600 м кучево-дожд., средняя 
[Cb calv|Ac trans]
+17.4 +3.2 39 +18  1024.2  -1  742  280           
21 18.04.18 310 (СЗ) н/о    ясно 
+12.3 +2.5 51 +12  1024.9  -0.1  742  285           
09 19.04.18 300 (СЗ) н/о    9/8 600 м верхняя 
[Cu med, cong|Ci fib]
+17 +5 45 +16  1019.7  -1.6  739  279           
15 19.04.18 330 (СЗ) н/о    9/8 600 м верхняя 
[Cu med, cong|Ci fib]
+18.1 +0.9 31 +18  1016.6  -1.2  737  278           
09 20.04.18 340 (С) 55000 м    6/6 600 м 
[Cu med, cong]
+13.9 +4.7 54 +14  1022.8  0.4  741  283           
15 20.04.18 350 (С) н/о    9/6 600 м средняя, верхняя 
[Cu med, cong|Ac cuf|Ci fib]
+16.1 +2.7 41 +17  1021.7  -0.6  740  280           
21 20.04.18 310 (СЗ) н/о    ясно 
+10 +2.6 60 +11  1023  0.1  741  287           
09 21.04.18 230 (ЮЗ) н/о    6/0 верхняя 
[Ci fib]
+18 +4.2 40 +18  1016.8  -1.9  737  277           
15 21.04.18 290 (З) н/о    8/0 верхняя 
[Ci fib]
+24.9 +2.3 23 +25  1009.6  -2.9  732  269           
21 21.04.18 290 (З) н/о    4/1 600 м кучево-дожд., верхняя 
[Cb calv|Ci fib]
+17.7 +5.2 44 +18  1011.1  0.7  733  276           
09 22.04.18 310 (СЗ) н/о    ясно 
+16.6 -1.1 30 +16  1014.5  -0.1  735  279           
15 22.04.18 320 (СЗ) н/о    4/0 средняя, верхняя 
[Ac trans|Ci fib]
+19.1 -2.4 23 +19  1012  -0.6  734  276           
21 22.04.18 300 (СЗ) н/о    3/0 верхняя 
[Ci fib]
+7.3 -0.3 58 +8  1015  0.6  735  288           
09 23.04.18 320 (СЗ) н/о    4/0 верхняя 
[Ci fib]
+17.2 -1.5 28 +18  1014.6  0.3  735  278           
15 23.04.18 250 (З) н/о    9/0 верхняя 
[Ci fib]
+20.2 -2.1 22 +20  1012.4  -1  734  275           
21 23.04.18 100 (В) н/о    9/6 600 м средняя 
[Sc|Ac und]
+12.9 +3.4 52 +14  1013.4  -0.2  734  281           
15 24.04.18 330 (СЗ) 26000 м    9/6 600 м кучево-дожд., верхняя 
[Cb calv|Ci fib]
+20.6 +6 39 +21  1012  -0.4  734  273           
21 24.04.18 260 (З) н/о    ясно 
+10.9 +5.5 69 +12  1014.6  0.4  735  283           
Время (UTC), дата Ветер
(°,м/с) 
Видим.   Явления Облачность Т
(°С)
Тd
(°С)
f(%) Тe
(°С)
Pmin
(гПа)
dP
(гПа)
Po
(мм)
O2
(г/м3)
Тmin Tmax R s Состояние
почвы

Для получения пояснительной информации подведите курсор к названию столбца.

ПОГОДА Новая Ушица - архив

Всё, что Вы хотите узнать о погоде Новая Ушица - удобно и подробно!

Выберите нужную дату (начиная с 1 января 2015* года) и нажмите кнопку "Найти".
Будут отображены архивные сводки погоды по пункту Новая Ушица, начиная с указанной даты.


Отображать данные в формате CSV (для использования в таблицах Excel)


Внимание! Наш архив погоды предназначен исключительно для личного некоммерческого использования в познавательных целях. Если Вам необходимы официальные справки о состоянии погоды (для производственных, юридических, коммерческих и т.п. целей), обращайтесь в органы Росгидромета.

*Примечание: данная дата относится к архиву по метеостанциям СССР (Россия, СНГ, Балтия).
Архив по метеостанциям Зарубежной Европы и Азии (кроме Китая) хранится 10 дней, по другим регионам земного шара (Китай, Африка, Америка, Австралия, Океания) - 1 день.

Новая Ушица - район местоположения метеостанции


Название, широта, долгота, высота метеостанции:
Новая Ушица 48.9°ш. 27.3°д. 290 м над ур. моря [Украина]

Дополнительная информация

В oтличие oт бoльшинства пoгoдных сайтoв мы публикуем пoдрoбную метеoинфoрмацию в детальнoм прoфессиoнальнoм фoрмате.

Характеристики температуры и влажнoсти вoздуха измеряются на высoте 2 м в тени вдали oт зданий и деревьев.
Скoрoсть ветра измеряется на высoте 10 м (на урoвне рoста челoвека скoрoсть ветра ниже в 1.5-2 раза). Если метеoстанция нахoдится в гoрoде или в лесу, тo скoрoсть ветра занижена на 2-4 м/с пo сравнению с oткрытым местoм. Скoрoсть ветра над акватoриями крупных рек и oзёр, а также на вершинах хoлмoв на 2-5 м/с выше, чем в oбычных услoвиях.
Атмoсфернoе давление в разных тoчках местнoсти мoжет значительнo oтличаться oт давления на метеoстанции, в зависимoсти oт услoвий рельефа (при пoдъёме на 10 м давление пoнижается примернo на 1 мм рт.ст.).